Погода в Кахибе

Россия / Республика Дагестан     42°25′44″N   46°35′47″E
темп.,
°C
ветер,
м/с
пор.,
м/с
влажн.,
%
обл.,
%
осадки,
мм/ч
давл.,
гПа
погр.,
м
7 июля, чт
чт700:00+9ююз22850 0.0 101817
03:00+8ююз32810 0.0 101726
06:00+10ююз33820 0.0 1017111
09:00+16ююз01520 0.0 1014915
12:00+19св33489 0.0 10121514
15:00+18св215681 0.1 10121289
18:00+17св11727 0.9 1013125
21:00+11юз22861 1.8 101518
8 июля, пт
пт800:00+10юз32840 0.0 101522
03:00+9юз22830 0.0 101519
06:00+12ююз22780 0.0 101563
09:00+17всв22610 0.0 1012793
12:00+19всв326134 0.1 10121300
15:00+19всв226416 2.1 1012941
18:00+17всв117516 3.6 1012166
21:00+12ююз228697 6.3 101521
9 июля, сб
сб900:00+10юз328486 0.1 101428
03:00+9юз328316 0.1 101426
06:00+12юз227940 0.0 101459
09:00+18всв125322 0.0 1011853
12:00+18св216030 0.5 1010967
15:00+18в116731 1.8 1010334
18:00+17с11725 2.3 1010134
21:00+12ююз22813 2.4 101218
10 июля, вс
вс1000:00+10юз32740 0.0 101222
03:00+10юз33700 0.0 101123
06:00+13юз22720 0.0 101147
09:00+20вюв12480 0.0 1008833
12:00+22всв33513 0.0 10061105
15:00+22всв33532 0.2 10061081
18:00+21вюв23680 0.1 1006102
21:00+13ююз43660 0.1 101034
11 июля, пн
пн1100:00+12ююз435846 0.0 101135
03:00+12ююз32575 0.0 101124
06:00+14юз22640 0.0 101037
09:00+21всв22460 0.0 1009622
12:00+22всв33530 0.0 1009949
15:00+22всв32571 0.4 10101079
18:00+20св12718 0.7 1012201
21:00+14зюз11863 0.8 101611